Weather History for Roseau, MN

Change the Weather History Date:

Wednesday, January 1, 2014

  Actual Average Record
Temperature  
Mean Temperature -20 °F -  
Max Temperature -14 °F 8 °F 37 °F (1964)
Min Temperature -27 °F -7 °F -42 °F (1974)
Degree Days  
Heating Degree Days 86    
Moisture  
Dew Point -28 °F    
Average Humidity 70    
Maximum Humidity 76    
Minimum Humidity 63    
Precipitation  
Precipitation 0.00 in - - ()
Sea Level Pressure  
Sea Level Pressure 30.46 in    
Wind  
Wind Speed 0 mph (South)    
Max Wind Speed 5 mph    
Max Gust Speed -    
Visibility 10 miles    
Events      
Averages and records for this station are not official NWS values.
T = Trace of Precipitation, MM = Missing Value Source: NWS Daily Summary

Daily Weather History Graph

Daily Weather History Graph

Search for Another Location

Airport:

Trip Planner

Search our weather history database for the weather conditions in past years. The results will help you decide how hot, cold, wet, or windy it might be!

Date:

Astronomy

Jan. 01, 2014 Rise Set
Actual Time 8:16 AM CST 4:36 PM CST
Civil Twilight 7:39 AM CST 5:13 PM CST
Nautical Twilight 6:59 AM CST 5:54 PM CST
Astronomical Twilight 6:20 AM CST 6:32 PM CST
Moon 8:01 AM CST (1/1) 5:30 PM CST (1/1)
Length of Visible Light 9h 34m
Length of Day
8h 20m
Waxing Crescent, 0% of the Moon is Illuminated
Jan 1
Waxing Crescent
Jan 7
First Quarter
Jan 15
Full
Jan 23
Last Quarter
Jan 30
New

Hourly Weather History & Observations

Time (CST) Temp. Windchill Dew Point Humidity Pressure Visibility Wind Dir Wind Speed Gust Speed Precip Events Conditions
12:14 AM -20.2 °F - -27.4 °F 69% 30.42 in 10.0 mi Calm Calm - N/A   Clear
12:34 AM -20.2 °F - -27.4 °F 69% 30.42 in 10.0 mi Calm Calm - N/A   Clear
12:54 AM -22.0 °F - -29.2 °F 69% 30.42 in 10.0 mi Calm Calm - N/A   Clear
1:14 AM -22.0 °F - -29.2 °F 69% 30.42 in 10.0 mi Calm Calm - N/A   Clear
1:34 AM -23.8 °F - -29.2 °F 76% 30.42 in 10.0 mi Calm Calm - N/A   Clear
1:54 AM -23.8 °F - -29.2 °F 76% 30.42 in 10.0 mi Calm Calm - N/A   Clear
2:14 AM -23.8 °F - -29.2 °F 76% 30.43 in 10.0 mi Calm Calm - N/A   Clear
2:34 AM -22.0 °F - -29.2 °F 69% 30.43 in 10.0 mi Calm Calm - N/A   Clear
2:54 AM -23.8 °F - -29.2 °F 76% 30.44 in 10.0 mi Calm Calm - N/A   Clear
3:14 AM -23.8 °F - -29.2 °F 76% 30.44 in 10.0 mi Calm Calm - N/A   Clear
3:34 AM -23.8 °F - -29.2 °F 76% 30.45 in 10.0 mi Calm Calm - N/A   Clear
3:55 AM -22.0 °F - -29.2 °F 69% 30.44 in 10.0 mi Calm Calm - N/A   Clear
4:14 AM -23.8 °F - -29.2 °F 76% 30.44 in 10.0 mi Calm Calm - N/A   Clear
4:34 AM -23.8 °F - -29.2 °F 76% 30.44 in 10.0 mi Calm Calm - N/A   Clear
4:55 AM -23.8 °F - -29.2 °F 76% 30.44 in 10.0 mi Calm Calm - N/A   Clear
5:14 AM -23.8 °F - -29.2 °F 76% 30.44 in 10.0 mi Calm Calm - N/A   Clear
5:34 AM -23.8 °F - -29.2 °F 76% 30.44 in 10.0 mi Calm Calm - N/A   Clear
5:55 AM -23.8 °F - -29.2 °F 76% 30.44 in 10.0 mi Calm Calm - N/A   Clear
6:14 AM -23.8 °F -35.0 °F -31.0 °F 69% 30.44 in 10.0 mi SE 3.5 mph - N/A   Clear
6:34 AM -23.8 °F - -29.2 °F 76% 30.44 in 10.0 mi Calm Calm - N/A   Clear
6:54 AM -25.6 °F - -32.8 °F 69% 30.44 in 10.0 mi Calm Calm - N/A   Clear
7:14 AM -23.8 °F - -31.0 °F 69% 30.44 in 10.0 mi Calm Calm - N/A   Clear
7:34 AM -23.8 °F - -29.2 °F 76% 30.45 in 10.0 mi Calm Calm - N/A   Clear
7:54 AM -23.8 °F - -31.0 °F 69% 30.45 in 10.0 mi Calm Calm - N/A   Clear
8:15 AM -23.8 °F - -29.2 °F 76% 30.46 in 10.0 mi Calm Calm - N/A   Clear
8:34 AM -23.8 °F - -29.2 °F 76% 30.47 in 10.0 mi Calm Calm - N/A   Clear
8:54 AM -23.8 °F - -29.2 °F 76% 30.47 in 10.0 mi Calm Calm - N/A   Clear
9:15 AM -22.0 °F - -29.2 °F 69% 30.48 in 10.0 mi Calm Calm - N/A   Clear
9:34 AM -22.0 °F - -29.2 °F 69% 30.49 in 10.0 mi Calm Calm - N/A   Clear
9:54 AM -23.8 °F - -29.2 °F 76% 30.50 in 10.0 mi Calm Calm - N/A   Clear
10:14 AM -22.0 °F - -29.2 °F 69% 30.50 in 10.0 mi Calm Calm - N/A   Clear
10:34 AM -20.2 °F - -27.4 °F 69% 30.50 in 10.0 mi Calm Calm - N/A   Clear
10:54 AM -20.2 °F - -27.4 °F 69% 30.50 in 10.0 mi Calm Calm - N/A   Clear
11:14 AM -18.4 °F - -27.4 °F 63% 30.50 in 10.0 mi Calm Calm - N/A   Clear
11:34 AM -18.4 °F - -25.6 °F 70% 30.49 in 10.0 mi Calm Calm - N/A   Clear
11:54 AM -18.4 °F - -27.4 °F 63% 30.49 in 10.0 mi Calm Calm - N/A   Clear
12:14 PM -18.4 °F - -25.6 °F 70% 30.49 in 10.0 mi Calm Calm - N/A   Clear
12:34 PM -18.4 °F - -25.6 °F 70% 30.49 in 10.0 mi Calm Calm - N/A   Clear
12:54 PM -18.4 °F - -25.6 °F 70% 30.49 in 10.0 mi Calm Calm - N/A   Clear
1:14 PM -16.6 °F - -25.6 °F 64% 30.48 in 10.0 mi Calm Calm - N/A   Clear
1:34 PM -16.6 °F - -23.8 °F 70% 30.48 in 10.0 mi Calm Calm - N/A   Clear
1:54 PM -14.8 °F - -23.8 °F 64% 30.47 in 10.0 mi Calm Calm - N/A   Clear
2:14 PM -14.8 °F - -23.8 °F 64% 30.46 in 10.0 mi Calm Calm - N/A   Clear
2:34 PM -14.8 °F - -23.8 °F 64% 30.46 in 10.0 mi Calm Calm - N/A   Clear
2:54 PM -14.8 °F - -23.8 °F 64% 30.46 in 10.0 mi Calm Calm - N/A   Clear
3:14 PM -14.8 °F - -23.8 °F 64% 30.46 in 10.0 mi Calm Calm - N/A   Clear
3:34 PM -14.8 °F - -23.8 °F 64% 30.46 in 10.0 mi Calm Calm - N/A   Clear
3:54 PM -14.8 °F - -23.8 °F 64% 30.46 in 10.0 mi Calm Calm - N/A   Clear
4:14 PM -14.8 °F - -23.8 °F 64% 30.47 in 10.0 mi Calm Calm - N/A   Clear
4:34 PM -14.8 °F - -23.8 °F 64% 30.46 in 10.0 mi Calm Calm - N/A   Clear
4:54 PM -16.6 °F - -25.6 °F 64% 30.46 in 10.0 mi Calm Calm - N/A   Clear
5:14 PM -16.6 °F - -23.8 °F 70% 30.47 in 10.0 mi Calm Calm - N/A   Clear
5:34 PM -16.6 °F - -25.6 °F 64% 30.47 in 10.0 mi Calm Calm - N/A   Clear
5:54 PM -16.6 °F - -25.6 °F 64% 30.47 in 10.0 mi Calm Calm - N/A   Clear
6:14 PM -18.4 °F - -27.4 °F 63% 30.47 in 10.0 mi Calm Calm - N/A   Clear
6:34 PM -20.2 °F - -27.4 °F 69% 30.47 in 10.0 mi Calm Calm - N/A   Clear
6:54 PM -18.4 °F - -25.6 °F 70% 30.47 in 10.0 mi Calm Calm - N/A   Clear
7:14 PM -18.4 °F - -25.6 °F 70% 30.47 in 10.0 mi Calm Calm - N/A   Clear
7:34 PM -20.2 °F - -27.4 °F 69% 30.48 in 10.0 mi Calm Calm - N/A   Clear
7:55 PM -22.0 °F - -29.2 °F 69% 30.47 in 10.0 mi Calm Calm - N/A   Clear
8:14 PM -23.8 °F - -29.2 °F 76% 30.47 in 10.0 mi Calm Calm - N/A   Clear
8:34 PM -23.8 °F - -31.0 °F 69% 30.46 in 10.0 mi Calm Calm - N/A   Clear
8:54 PM -23.8 °F - -31.0 °F 69% 30.46 in 10.0 mi Calm Calm - N/A   Clear
9:14 PM -23.8 °F - -31.0 °F 69% 30.45 in 10.0 mi Calm Calm - N/A   Clear
9:34 PM -25.6 °F - -32.8 °F 69% 30.46 in 10.0 mi Calm Calm - N/A   Clear
9:54 PM -27.4 °F - -34.6 °F 69% 30.45 in 10.0 mi Calm Calm - N/A   Clear
10:14 PM -27.4 °F -41.9 °F -34.6 °F 69% 30.45 in 10.0 mi South 4.6 mph - N/A   Clear
10:34 PM -27.4 °F -39.2 °F -34.6 °F 69% 30.45 in 10.0 mi South 3.5 mph - N/A   Clear
10:55 PM -25.6 °F - -32.8 °F 69% 30.45 in 10.0 mi Calm Calm - N/A   Clear
11:14 PM -25.6 °F -39.8 °F -32.8 °F 69% 30.45 in 10.0 mi South 4.6 mph - N/A   Clear
11:34 PM -25.6 °F - -32.8 °F 69% 30.45 in 10.0 mi Calm Calm - N/A   Clear
11:55 PM -27.4 °F - -34.6 °F 69% 30.45 in 10.0 mi Calm Calm - N/A   Clear